W5GGH Weather Reports


time (UTC)temp
C
wind
direction
speed
KPH
gust
KPH
rain 1hr
cm
rain 24hr
cm
rain mn
cm
humidity
%
barometer
mb
20260906225855 38 104 4.8 9.7 0.00 0.00 0.00 37 1027.5
20260906225351 38 298 1.6 6.4 0.00 0.00 0.00 37 1027.4
20260906224847 38 31 3.2 3.2 0.00 0.00 0.00 38 1027.4
20260906224343 38 52 3.2 9.7 0.00 0.00 0.00 37 1027.4
20260906223839 38 227 0.0 4.8 0.00 0.00 0.00 38 1027.5
20260906223335 38 54 3.2 4.8 0.00 0.00 0.00 38 1027.4
20260906222833 38 321 3.2 9.7 0.00 0.00 0.00 37 1027.4
20260906222327 37 23 3.2 3.2 0.00 0.00 0.00 38 1027.4
20260906221825 38 59 1.6 3.2 0.00 0.00 0.00 37 1027.5
20260906221325 38 30 1.6 3.2 0.00 0.00 0.00 37 1027.6
20260906220820 38 60 3.2 6.4 0.00 0.00 0.00 36 1027.8
20260906220315 38 0 1.6 3.2 0.00 0.00 0.00 35 1027.5
20260906215814 38 126 1.6 4.8 0.00 0.00 0.00 36 1027.6
20260906215309 38 93 1.6 3.2 0.00 0.00 0.00 36 1027.7
20260906214807 38 181 0.0 4.8 0.00 0.00 0.00 37 1027.8
20260906214302 38 185 0.0 8.0 0.00 0.00 0.00 36 1027.7
20260906213801 38 71 3.2 8.0 0.00 0.00 0.00 36 1028.0
20260906213301 38 109 3.2 8.0 0.00 0.00 0.00 37 1027.9
20260906212758 38 126 3.2 4.8 0.00 0.00 0.00 37 1028.0
20260906212254 38 53 3.2 6.4 0.00 0.00 0.00 38 1027.9
20260906211753 38 149 3.2 11.3 0.00 0.00 0.00 36 1028.1
20260906211248 39 18 3.2 4.8 0.00 0.00 0.00 36 1028.2
20260906210744 39 62 3.2 3.2 0.00 0.00 0.00 36 1028.1
20260906210238 39 25 0.0 3.2 0.00 0.00 0.00 38 1028.3
20260906205733 38 269 0.0 6.4 0.00 0.00 0.00 36 1028.3
20260906205230 38 129 4.8 6.4 0.00 0.00 0.00 37 1028.4
20260906204730 38 47 0.0 4.8 0.00 0.00 0.00 37 1028.5
20260906204229 38 38 1.6 4.8 0.00 0.00 0.00 37 1028.5
20260906203729 38 351 1.6 4.8 0.00 0.00 0.00 36 1028.5
20260906203224 38 106 1.6 6.4 0.00 0.00 0.00 37 1028.6
20260906202721 38 28 3.2 8.0 0.00 0.00 0.00 37 1028.8
20260906202220 38 157 8.0 8.0 0.00 0.00 0.00 37 1028.9
20260906201716 38 359 6.4 6.4 0.00 0.00 0.00 38 1028.7
20260906201215 38 54 1.6 4.8 0.00 0.00 0.00 39 1028.7
20260906200711 38 110 4.8 6.4 0.00 0.00 0.00 38 1028.7
20260906200207 38 107 6.4 6.4 0.00 0.00 0.00 39 1028.9
20260906195702 38 255 3.2 6.4 0.00 0.00 0.00 39 1028.9
20260906195158 38 73 3.2 8.0 0.00 0.00 0.00 39 1028.9
20260906194654 38 49 6.4 12.9 0.00 0.00 0.00 40 1029.0
20260906194149 38 130 1.6 3.2 0.00 0.00 0.00 38 1029.0
20260906193644 37 138 8.0 8.0 0.00 0.00 0.00 39 1029.1
20260906193139 37 89 3.2 4.8 0.00 0.00 0.00 40 1029.1
20260906192635 37 50 3.2 6.4 0.00 0.00 0.00 40 1029.1
20260906192134 37 117 3.2 4.8 0.00 0.00 0.00 40 1029.3
20260906191629 37 318 1.6 8.0 0.00 0.00 0.00 40 1029.4
20260906191128 37 20 0.0 4.8 0.00 0.00 0.00 41 1029.5
20260906190628 37 147 3.2 4.8 0.00 0.00 0.00 42 1029.2
20260906190123 38 347 4.8 6.4 0.00 0.00 0.00 41 1029.4
20260906185622 37 266 3.2 4.8 0.00 0.00 0.00 42 1029.4
20260906185121 37 64 1.6 4.8 0.00 0.00 0.00 41 1029.6
20260906184616 37 41 3.2 8.0 0.00 0.00 0.00 42 1029.7
20260906184112 36 79 1.6 4.8 0.00 0.00 0.00 42 1029.7
20260906183608 37 69 3.2 3.2 0.00 0.00 0.00 43 1029.7
20260906183103 37 344 0.0 3.2 0.00 0.00 0.00 41 1030.0
20260906182558 37 250 1.6 3.2 0.00 0.00 0.00 43 1030.2
20260906182054 37 72 3.2 8.0 0.00 0.00 0.00 43 1030.1
20260906181549 37 352 0.0 4.8 0.00 0.00 0.00 43 1030.1
20260906181045 36 118 0.0 3.2 0.00 0.00 0.00 44 1030.1
20260906180545 36 170 0.0 3.2 0.00 0.00 0.00 43 1030.3
20260906180044 36 170 0.0 3.2 0.00 0.00 0.00 43 1030.4
20260906175543 36 71 3.2 3.2 0.00 0.00 0.00 46 1030.5
20260906175038 36 141 8.0 8.0 0.00 0.00 0.00 43 1030.5
20260906174536 36 57 1.6 3.2 0.00 0.00 0.00 45 1030.5
20260906174031 36 135 1.6 4.8 0.00 0.00 0.00 44 1030.7
20260906173527 36 121 1.6 1.6 0.00 0.00 0.00 46 1030.7
20260906173023 36 94 3.2 4.8 0.00 0.00 0.00 46 1030.9
20260906172522 36 165 3.2 6.4 0.00 0.00 0.00 44 1031.0
20260906172018 36 166 0.0 0.0 0.00 0.00 0.00 45 1030.9
20260906171513 36 91 3.2 4.8 0.00 0.00 0.00 45 1031.1
20260906171008 36 78 3.2 9.7 0.00 0.00 0.00 46 1031.3
20260906170504 36 189 0.0 4.8 0.00 0.00 0.00 45 1031.3
20260906170001 36 77 3.2 3.2 0.00 0.00 0.00 47 1031.5
20260906165459 36 354 3.2 6.4 0.00 0.00 0.00 48 1031.6
20260906164955 35 23 3.2 3.2 0.00 0.00 0.00 48 1031.3
20260906164453 35 28 6.4 6.4 0.00 0.00 0.00 49 1031.4
20260906163950 35 53 1.6 1.6 0.00 0.00 0.00 48 1031.5
20260906163445 35 66 0.0 8.0 0.00 0.00 0.00 48 1031.6
20260906162944 35 327 0.0 3.2 0.00 0.00 0.00 49 1031.4
20260906162442 35 43 3.2 4.8 0.00 0.00 0.00 50 1031.5
20260906161938 35 56 0.0 3.2 0.00 0.00 0.00 51 1031.5
20260906161437 35 60 1.6 3.2 0.00 0.00 0.00 53 1031.5
20260906160936 35 0 0.0 3.2 0.00 0.00 0.00 53 1031.5
20260906160430 35 119 0.0 4.8 0.00 0.00 0.00 53 1031.2
20260906155929 34 37 1.6 3.2 0.00 0.00 0.00 55 1031.6
20260906155428 34 30 3.2 3.2 0.00 0.00 0.00 55 1031.6
20260906154925 33 9 0.0 3.2 0.00 0.00 0.00 57 1031.5
20260906154425 33 47 1.6 3.2 0.00 0.00 0.00 57 1031.5
20260906153923 33 62 0.0 6.4 0.00 0.00 0.00 57 1031.5
20260906153422 33 44 1.6 3.2 0.00 0.00 0.00 58 1031.6
20260906152918 33 92 3.2 3.2 0.00 0.00 0.00 58 1031.4
20260906152412 32 351 3.2 3.2 0.00 0.00 0.00 59 1031.5
20260906151911 32 357 1.6 3.2 0.00 0.00 0.00 58 1031.3
20260906151407 32 354 3.2 3.2 0.00 0.00 0.00 63 1031.3
20260906150903 32 11 4.8 4.8 0.00 0.00 0.00 61 1031.4
20260906150358 32 74 1.6 3.2 0.00 0.00 0.00 62 1031.3
20260906145857 31 38 1.6 3.2 0.00 0.00 0.00 63 1031.2
20260906145356 31 5 1.6 4.8 0.00 0.00 0.00 63 1031.4
20260906144851 31 355 0.0 3.2 0.00 0.00 0.00 67 1031.2
20260906144346 30 10 1.6 3.2 0.00 0.00 0.00 67 1031.1
20260906143846 30 44 0.0 3.2 0.00 0.00 0.00 69 1031.3
20260906143342 29 29 0.0 3.2 0.00 0.00 0.00 71 1031.2
20260906142838 28 43 0.0 3.2 0.00 0.00 0.00 73 1031.2
20260906142332 28 352 0.0 3.2 0.00 0.00 0.00 74 1031.2
20260906141833 28 15 1.6 3.2 0.00 0.00 0.00 74 1031.3
20260906141327 28 51 1.6 3.2 0.00 0.00 0.00 75 1031.3
20260906140826 27 49 1.6 3.2 0.00 0.00 0.00 76 1031.1
20260906140321 27 28 1.6 3.2 0.00 0.00 0.00 76 1031.4
20260906135818 27 6 1.6 3.2 0.00 0.00 0.00 76 1031.3
20260906135314 27 8 1.6 3.2 0.00 0.00 0.00 77 1031.1
20260906134809 27 72 3.2 3.2 0.00 0.00 0.00 78 1031.1
20260906134304 26 32 3.2 3.2 0.00 0.00 0.00 79 1031.1
20260906133759 26 87 1.6 3.2 0.00 0.00 0.00 81 1031.0
20260906133255 26 42 3.2 4.8 0.00 0.00 0.00 81 1031.0
20260906132750 26 34 3.2 3.2 0.00 0.00 0.00 83 1030.9
20260906132245 25 33 3.2 3.2 0.00 0.00 0.00 85 1031.0
20260906131741 25 9 0.0 3.2 0.00 0.00 0.00 85 1031.1
20260906131236 25 22 1.6 3.2 0.00 0.00 0.00 86 1030.9
20260906130731 25 5 1.6 3.2 0.00 0.00 0.00 87 1031.2
20260906130226 25 0 1.6 3.2 0.00 0.00 0.00 88 1030.9
20260906125725 24 30 3.2 3.2 0.00 0.00 0.00 90 1030.8
20260906125224 24 3 1.6 3.2 0.00 0.00 0.00 90 1030.9
20260906124724 24 11 3.2 3.2 0.00 0.00 0.00 91 1031.0
20260906124219 23 21 3.2 3.2 0.00 0.00 0.00 91 1030.9
20260906123717 23 352 1.6 3.2 0.00 0.00 0.00 91 1030.9
20260906123214 23 0 0.0 1.6 0.00 0.00 0.00 91 1031.1
20260906122713 23 26 1.6 1.6 0.00 0.00 0.00 90 1030.8
20260906122208 23 12 0.0 1.6 0.00 0.00 0.00 90 1030.7
20260906121704 23 35 1.6 3.2 0.00 0.00 0.00 90 1030.7
20260906121200 23 29 1.6 3.2 0.00 0.00 0.00 90 1030.6
20260906120656 23 23 1.6 3.2 0.00 0.00 0.00 90 1030.5
20260906120154 23 19 1.6 1.6 0.00 0.00 0.00 89 1030.7
20260906115654 23 37 1.6 3.2 0.00 0.00 0.00 89 1030.5
20260906115149 23 343 1.6 3.2 0.00 0.00 0.00 90 1030.3
20260906114648 23 358 1.6 3.2 0.00 0.00 0.00 90 1030.2
20260906114144 23 10 1.6 3.2 0.00 0.00 0.00 89 1030.2
20260906113644 23 34 1.6 3.2 0.00 0.00 0.00 89 1030.3
20260906113143 24 356 0.0 3.2 0.00 0.00 0.00 89 1030.1
20260906112643 24 14 1.6 1.6 0.00 0.00 0.00 88 1030.1
20260906112140 24 13 0.0 1.6 0.00 0.00 0.00 88 1030.0
20260906111639 24 17 1.6 1.6 0.00 0.00 0.00 87 1030.2
20260906111134 24 21 0.0 1.6 0.00 0.00 0.00 87 1030.1
20260906110629 24 6 1.6 1.6 0.00 0.00 0.00 87 1030.1
20260906110124 24 353 1.6 1.6 0.00 0.00 0.00 87 1030.0
20260906105624 24 340 0.0 1.6 0.00 0.00 0.00 86 1030.0
20260906105120 25 3 0.0 1.6 0.00 0.00 0.00 87 1030.0
20260906104619 25 31 1.6 1.6 0.00 0.00 0.00 86 1029.9
20260906104113 25 16 1.6 3.2 0.00 0.00 0.00 86 1029.9
20260906103612 25 25 1.6 3.2 0.00 0.00 0.00 85 1029.9
20260906103107 25 16 1.6 1.6 0.00 0.00 0.00 85 1029.9
20260906102608 25 354 1.6 1.6 0.00 0.00 0.00 85 1029.5
20260906102103 25 349 1.6 1.6 0.00 0.00 0.00 84 1029.5
20260906101603 25 355 1.6 3.2 0.00 0.00 0.00 85 1029.7
20260906101103 25 12 1.6 3.2 0.00 0.00 0.00 84 1029.7
20260906100559 25 24 1.6 1.6 0.00 0.00 0.00 84 1029.5
20260906100059 25 48 1.6 1.6 0.00 0.00 0.00 83 1029.5
20260906095558 25 23 1.6 3.2 0.00 0.00 0.00 82 1029.7
20260906095054 25 28 1.6 1.6 0.00 0.00 0.00 82 1029.3
20260906094553 25 34 0.0 3.2 0.00 0.00 0.00 82 1029.3
20260906094049 25 46 1.6 3.2 0.00 0.00 0.00 81 1029.2
20260906093544 26 20 1.6 3.2 0.00 0.00 0.00 80 1029.2
20260906093039 26 25 0.0 1.6 0.00 0.00 0.00 80 1029.3
20260906092534 26 48 0.0 3.2 0.00 0.00 0.00 81 1029.2
20260906092029 26 29 3.2 3.2 0.00 0.00 0.00 79 1029.1
20260906091525 26 12 1.6 3.2 0.00 0.00 0.00 79 1029.1
20260906091022 26 17 1.6 3.2 0.00 0.00 0.00 79 1029.1
20260906090522 26 10 1.6 3.2 0.00 0.00 0.00 78 1029.0
20260906090017 26 16 0.0 3.2 0.00 0.00 0.00 78 1029.1
20260906085015 26 33 3.2 3.2 0.00 0.00 0.00 78 1029.1
20260906084515 26 22 1.6 3.2 0.00 0.00 0.00 78 1029.1
20260906084014 26 26 1.6 3.2 0.00 0.00 0.00 78 1029.0
20260906083510 26 51 3.2 3.2 0.00 0.00 0.00 79 1029.1
20260906083009 26 27 1.6 3.2 0.00 0.00 0.00 78 1028.9
20260906082505 26 9 1.6 3.2 0.00 0.00 0.00 77 1029.1
20260906082000 26 28 3.2 3.2 0.00 0.00 0.00 77 1029.0
20260906081456 26 29 3.2 3.2 0.00 0.00 0.00 77 1029.1
20260906080951 27 34 3.2 3.2 0.00 0.00 0.00 76 1029.2
20260906080449 27 358 3.2 3.2 0.00 0.00 0.00 76 1029.3
20260906075949 27 6 3.2 3.2 0.00 0.00 0.00 76 1029.2
20260906075443 27 0 1.6 3.2 0.00 0.00 0.00 75 1029.5
20260906074939 27 13 3.2 3.2 0.00 0.00 0.00 75 1029.5
20260906074439 27 14 3.2 3.2 0.00 0.00 0.00 74 1029.5
20260906073937 27 23 1.6 3.2 0.00 0.00 0.00 74 1029.4
20260906073432 27 0 1.6 3.2 0.00 0.00 0.00 74 1029.2
20260906072929 27 19 3.2 3.2 0.00 0.00 0.00 74 1029.1
20260906072424 27 16 0.0 3.2 0.00 0.00 0.00 73 1029.3
20260906071920 27 24 1.6 3.2 0.00 0.00 0.00 73 1029.3
20260906071415 27 21 1.6 3.2 0.00 0.00 0.00 73 1029.2
20260906070911 27 11 1.6 3.2 0.00 0.00 0.00 74 1029.4
20260906070407 27 351 3.2 3.2 0.00 0.00 0.00 74 1029.3
20260906065902 27 10 0.0 3.2 0.00 0.00 0.00 74 1029.5
20260906065356 27 325 1.6 3.2 0.00 0.00 0.00 74 1029.3
20260906064852 27 8 3.2 3.2 0.00 0.00 0.00 75 1029.5
20260906064349 27 10 1.6 3.2 0.00 0.00 0.00 76 1029.4
20260906063848 27 30 1.6 3.2 0.00 0.00 0.00 76 1029.6
20260906063344 27 22 3.2 3.2 0.00 0.00 0.00 76 1029.5
20260906062839 27 18 3.2 3.2 0.00 0.00 0.00 76 1029.6
20260906062338 27 25 3.2 3.2 0.00 0.00 0.00 75 1029.9
20260906061833 27 23 3.2 3.2 0.00 0.00 0.00 75 1029.7
20260906061330 27 17 1.6 3.2 0.00 0.00 0.00 74 1029.7
20260906060824 27 28 3.2 3.2 0.00 0.00 0.00 74 1029.9
20260906060322 27 14 3.2 3.2 0.00 0.00 0.00 73 1029.9
20260906055818 27 16 1.6 3.2 0.00 0.00 0.00 73 1029.7
20260906055313 28 13 3.2 3.2 0.00 0.00 0.00 72 1029.7
20260906054808 28 14 1.6 3.2 0.00 0.00 0.00 71 1029.6
20260906054304 28 11 1.6 3.2 0.00 0.00 0.00 71 1029.9
20260906053800 28 20 1.6 3.2 0.00 0.00 0.00 70 1029.7
20260906053255 28 28 1.6 3.2 0.00 0.00 0.00 69 1029.7
20260906052750 28 21 3.2 3.2 0.00 0.00 0.00 69 1029.9
20260906052246 28 2 1.6 3.2 0.00 0.00 0.00 69 1029.7
20260906051743 28 0 1.6 3.2 0.00 0.00 0.00 68 1029.7
20260906051243 29 0 0.0 1.6 0.00 0.00 0.00 68 1029.7
20260906050738 29 356 0.0 3.2 0.00 0.00 0.00 67 1029.7
20260906050233 29 24 0.0 3.2 0.00 0.00 0.00 67 1029.7
20260906045732 29 27 3.2 3.2 0.00 0.00 0.00 67 1029.6
20260906045227 29 338 3.2 3.2 0.00 0.00 0.00 66 1029.9
20260906044723 29 355 0.0 3.2 0.00 0.00 0.00 66 1029.5
20260906044218 30 29 1.6 1.6 0.00 0.00 0.00 66 1029.5
20260906043714 30 325 3.2 3.2 0.00 0.00 0.00 66 1029.5
20260906043210 30 12 1.6 3.2 0.00 0.00 0.00 65 1029.7
20260906042709 30 321 3.2 3.2 0.00 0.00 0.00 65 1029.5
20260906042209 30 119 1.6 3.2 0.00 0.00 0.00 65 1029.2
20260906041705 30 21 1.6 3.2 0.00 0.00 0.00 65 1029.5
20260906041205 30 130 0.0 3.2 0.00 0.00 0.00 65 1029.4
20260906040700 30 80 0.0 4.8 0.00 0.00 0.00 64 1029.4
20260906040156 30 152 0.0 3.2 0.00 0.00 0.00 64 1029.5
20260906035651 30 44 1.6 6.4 0.00 0.00 0.00 64 1029.4
20260906035147 30 127 3.2 4.8 0.00 0.00 0.00 64 1029.2
20260906034642 30 132 0.0 6.4 0.00 0.00 0.00 63 1029.5
20260906034136 30 14 1.6 3.2 0.00 0.00 0.00 64 1029.4
20260906033632 30 100 0.0 6.4 0.00 0.00 0.00 63 1029.4
20260906033132 30 127 4.8 4.8 0.00 0.00 0.00 63 1029.6
20260906032629 30 141 0.0 4.8 0.00 0.00 0.00 63 1029.7
20260906032128 31 326 0.0 3.2 0.00 0.00 0.00 63 1029.6
20260906031624 31 139 6.4 6.4 0.00 0.00 0.00 62 1029.7
20260906031119 31 145 3.2 3.2 0.00 0.00 0.00 62 1029.6
20260906030618 31 21 1.6 4.8 0.00 0.00 0.00 62 1029.6
20260906030114 31 120 3.2 6.4 0.00 0.00 0.00 61 1029.5
20260906025613 31 54 1.6 4.8 0.00 0.00 0.00 61 1029.4
20260906025112 31 52 0.0 6.4 0.00 0.00 0.00 60 1029.1
20260906024607 31 77 1.6 6.4 0.00 0.00 0.00 59 1029.3
20260906024101 31 107 3.2 6.4 0.00 0.00 0.00 59 1029.1
20260906023558 31 103 1.6 6.4 0.00 0.00 0.00 58 1028.9
20260906023057 31 131 3.2 8.0 0.00 0.00 0.00 57 1028.9
20260906022553 32 111 3.2 4.8 0.00 0.00 0.00 56 1028.6
20260906022048 32 147 3.2 4.8 0.00 0.00 0.00 56 1028.8
20260906021544 32 113 1.6 8.0 0.00 0.00 0.00 55 1028.7
20260906021043 32 129 3.2 6.4 0.00 0.00 0.00 55 1028.7
20260906020543 32 52 0.0 4.8 0.00 0.00 0.00 54 1028.7
20260906020042 32 121 3.2 6.4 0.00 0.00 0.00 53 1028.5
20260906015542 32 120 1.6 8.0 0.00 0.00 0.00 52 1028.4
20260906015041 33 145 6.4 14.5 0.00 0.00 0.00 51 1028.4
20260906014536 33 143 4.8 9.7 0.00 0.00 0.00 51 1028.4
20260906014032 33 132 4.8 14.5 0.00 0.00 0.00 50 1028.2
20260906013527 33 66 3.2 12.9 0.00 0.00 0.00 49 1028.0
20260906013023 34 140 4.8 8.0 0.00 0.00 0.00 47 1028.1
20260906012518 34 103 3.2 4.8 0.00 0.00 0.00 45 1027.8
20260906012017 34 28 0.0 3.2 0.00 0.00 0.00 45 1027.7
20260906011514 34 115 3.2 4.8 0.00 0.00 0.00 45 1027.7
20260906011013 35 124 3.2 4.8 0.00 0.00 0.00 44 1027.5
20260906010508 35 1 1.6 3.2 0.00 0.00 0.00 44 1027.6
20260906010005 35 57 0.0 4.8 0.00 0.00 0.00 43 1027.5
20260906005504 35 120 6.4 6.4 0.00 0.00 0.00 43 1027.6
20260906005002 35 105 1.6 4.8 0.00 0.00 0.00 42 1027.5
20260906004457 35 140 3.2 9.7 0.00 0.00 0.00 41 1027.6
20260906003952 35 133 1.6 4.8 0.00 0.00 0.00 40 1027.4
20260906003447 36 108 3.2 3.2 0.00 0.00 0.00 40 1027.6
20260906002943 36 48 3.2 4.8 0.00 0.00 0.00 39 1027.4
20260906002442 36 66 0.0 3.2 0.00 0.00 0.00 39 1027.5
20260906001938 36 88 3.2 3.2 0.00 0.00 0.00 39 1027.4
20260906001434 36 68 1.6 4.8 0.00 0.00 0.00 39 1027.4
20260906000928 37 110 0.0 1.6 0.00 0.00 0.00 38 1027.4
20260906000425 37 4 0.0 3.2 0.00 0.00 0.00 38 1027.3
20260905235919 37 336 0.0 3.2 0.00 0.00 0.00 39 1027.2
20260905235418 37 113 1.6 3.2 0.00 0.00 0.00 37 1027.2
20260905234914 37 70 3.2 3.2 0.00 0.00 0.00 36 1027.2
20260905234409 37 40 0.0 3.2 0.00 0.00 0.00 37 1027.2
20260905233903 37 17 3.2 3.2 0.00 0.00 0.00 36 1027.2
20260905233359 37 97 3.2 4.8 0.00 0.00 0.00 36 1027.2
20260905232858 37 2 0.0 3.2 0.00 0.00 0.00 37 1027.2
20260905232354 37 50 0.0 3.2 0.00 0.00 0.00 37 1027.2
20260905231849 37 143 3.2 8.0 0.00 0.00 0.00 37 1027.2
20260905231350 37 124 4.8 9.7 0.00 0.00 0.00 37 1027.2
20260905230847 37 110 4.8 6.4 0.00 0.00 0.00 38 1027.3
20260905230344 37 38 3.2 4.8 0.00 0.00 0.00 37 1027.2